DW6826 Weather Reports


time (UTC)temp
C
wind
direction
speed
KPH
gust
KPH
rain 1hr
cm
rain 24hr
cm
rain mn
cm
humidity
%
barometer
mb
20260509150352 23 288 0.0 1.6 0.00 0.00 0.00 85 1013.2
20260509145902 22 288 0.0 3.2 0.00 0.00 0.00 85 1013.3
20260509145356 22 288 0.0 3.2 0.00 0.00 0.00 85 1013.2
20260509144900 22 158 0.0 1.6 0.00 0.00 0.00 86 1013.3
20260509144402 22 158 0.0 1.6 0.00 0.00 0.00 86 1013.1
20260509143823 22 311 0.0 3.2 0.00 0.00 0.00 86 1013.0
20260509143355 22 311 0.0 3.2 0.00 0.00 0.00 86 1013.1
20260509142918 22 311 0.0 3.2 0.00 0.00 0.00 86 1013.1
20260509142336 22 280 0.0 1.6 0.00 0.00 0.00 86 1012.9
20260509141346 22 217 0.0 3.2 0.00 0.00 0.00 86 1012.8
20260509140918 22 102 0.0 3.2 0.00 0.00 0.00 86 1012.7
20260509140338 22 172 0.0 1.6 0.00 0.00 0.00 86 1012.7
20260509135907 22 172 0.0 1.6 0.00 0.00 0.00 86 1012.8
20260509135327 22 172 0.0 1.6 0.00 0.00 0.00 86 1012.7
20260509134850 22 172 0.0 1.6 0.00 0.00 0.00 87 1012.7
20260509134420 22 174 0.0 3.2 0.00 0.00 0.00 87 1012.7
20260509133841 22 91 0.0 3.2 0.00 0.00 0.00 87 1012.6
20260509133414 22 79 0.0 1.6 0.00 0.00 0.00 87 1012.8
20260509132914 22 79 0.0 3.2 0.00 0.00 0.00 87 1012.8
20260509132344 21 79 1.6 3.2 0.00 0.00 0.00 87 1012.7
20260509131907 21 139 0.0 0.0 0.00 0.00 0.00 87 1013.0
20260509131437 21 139 0.0 0.0 0.00 0.00 0.00 87 1012.9
20260509130839 21 139 0.0 0.0 0.00 0.00 0.00 87 1013.0
20260509130414 21 139 0.0 0.0 0.00 0.00 0.00 87 1013.0
20260509125831 21 139 0.0 1.6 0.00 0.00 0.00 87 1013.0
20260509125404 21 139 0.0 1.6 0.00 0.00 0.00 87 1013.0
20260509124926 21 139 0.0 1.6 0.00 0.00 0.00 88 1013.0
20260509124415 21 139 0.0 1.6 0.00 0.00 0.00 88 1013.1
20260509123937 21 139 0.0 1.6 0.00 0.00 0.00 88 1013.2
20260509123336 21 139 0.0 3.2 0.00 0.00 0.00 88 1013.1
20260509122909 21 139 0.0 3.2 0.00 0.00 0.00 89 1013.1
20260509122332 21 130 1.6 3.2 0.00 0.00 0.00 89 1013.1
20260509121907 21 110 0.0 3.2 0.00 0.00 0.00 89 1013.1
20260509121325 20 108 1.6 3.2 0.00 0.00 0.00 90 1013.1
20260509120858 20 181 0.0 1.6 0.00 0.00 0.00 91 1013.2
20260509120423 20 138 0.0 3.2 0.00 0.00 0.00 91 1012.9
20260509115826 20 77 0.0 1.6 0.00 0.00 0.00 92 1012.8
20260509115349 19 329 0.0 1.6 0.00 0.00 0.00 93 1012.8
20260509114924 19 314 0.0 0.0 0.00 0.00 0.00 94 1012.9
20260509114324 18 314 0.0 0.0 0.00 0.00 0.00 94 1012.7
20260509113856 18 314 0.0 0.0 0.00 0.00 0.00 94 1012.7
20260509113419 18 314 0.0 0.0 0.00 0.00 0.00 94 1012.6
20260509112847 18 314 0.0 0.0 0.00 0.00 0.00 94 1012.7
20260509112407 18 314 0.0 0.0 0.00 0.00 0.00 94 1012.6
20260509111351 18 314 0.0 0.0 0.00 0.00 0.00 93 1012.5
20260509110915 17 314 0.0 0.0 0.00 0.00 0.00 93 1012.4
20260509110345 17 314 0.0 0.0 0.00 0.00 0.00 93 1012.5
20260509105907 17 314 0.0 0.0 0.00 0.00 0.00 93 1012.3
20260509105337 17 314 0.0 0.0 0.00 0.00 0.00 93 1012.3
20260509104859 17 91 0.0 0.0 0.00 0.00 0.00 92 1012.2
20260509104431 17 91 0.0 0.0 0.00 0.00 0.00 92 1012.0
20260509103829 17 91 0.0 0.0 0.00 0.00 0.00 92 1012.0
20260509103354 17 91 0.0 0.0 0.00 0.00 0.00 92 1012.0
20260509102925 17 91 0.0 0.0 0.00 0.00 0.00 91 1011.9
20260509102324 18 91 0.0 0.0 0.00 0.00 0.00 91 1011.8
20260509101855 18 91 0.0 0.0 0.00 0.00 0.00 92 1011.8
20260509101357 18 91 0.0 0.0 0.00 0.00 0.00 92 1011.9
20260509100907 18 91 0.0 0.0 0.00 0.00 0.00 92 1012.0
20260509100431 18 91 0.0 0.0 0.00 0.00 0.00 92 1011.8
20260509095837 18 91 0.0 0.0 0.00 0.00 0.00 92 1011.9
20260509095401 18 91 0.0 0.0 0.00 0.00 0.00 91 1012.0
20260509094934 18 91 0.0 0.0 0.00 0.00 0.00 91 1012.1
20260509094331 18 91 0.0 0.0 0.00 0.00 0.00 91 1012.0
20260509093905 18 91 0.0 0.0 0.00 0.00 0.00 91 1011.9
20260509093327 18 91 0.0 0.0 0.00 0.00 0.00 91 1011.9
20260509092858 18 91 0.0 0.0 0.00 0.00 0.00 91 1012.0
20260509092424 18 91 0.0 0.0 0.00 0.00 0.00 91 1012.0
20260509091823 18 91 0.0 0.0 0.00 0.00 0.00 91 1012.0
20260509091354 18 91 0.0 0.0 0.00 0.00 0.00 91 1012.2
20260509090928 18 91 0.0 0.0 0.00 0.00 0.00 91 1012.2
20260509090324 18 91 0.0 0.0 0.00 0.00 0.00 91 1012.3
20260509085847 18 91 0.0 0.0 0.00 0.00 0.00 91 1012.2
20260509085402 18 91 0.0 0.0 0.00 0.00 0.00 91 1012.2
20260509084904 18 91 0.0 0.0 0.00 0.00 0.00 91 1012.2
20260509084324 18 91 0.0 1.6 0.00 0.00 0.00 91 1012.3
20260509083856 18 91 0.0 1.6 0.00 0.00 0.00 91 1012.1
20260509083419 18 87 0.0 1.6 0.00 0.00 0.00 91 1012.2
20260509082847 18 87 0.0 0.0 0.00 0.00 0.00 91 1012.4
20260509082411 18 87 0.0 0.0 0.00 0.00 0.00 91 1012.4
20260509081841 18 87 0.0 0.0 0.00 0.00 0.00 91 1012.6
20260509081405 18 87 0.0 0.0 0.00 0.00 0.00 91 1012.5
20260509080838 18 87 0.0 0.0 0.00 0.00 0.00 90 1012.3
20260509080343 18 87 0.0 0.0 0.00 0.00 0.00 90 1012.2
20260509075845 18 87 0.0 0.0 0.00 0.00 0.00 90 1012.4
20260509075348 18 87 0.0 0.0 0.00 0.00 0.00 90 1012.4
20260509074854 18 87 0.0 0.0 0.00 0.00 0.00 90 1012.6
20260509074322 18 87 0.0 0.0 0.00 0.00 0.00 90 1012.7
20260509073843 18 87 0.0 0.0 0.00 0.00 0.00 89 1013.0
20260509073413 18 87 0.0 0.0 0.00 0.00 0.00 89 1012.8
20260509072857 19 87 0.0 0.0 0.00 0.00 0.00 89 1012.5
20260509072400 19 87 0.0 0.0 0.00 0.00 0.00 89 1012.5
20260509071902 19 87 0.0 0.0 0.00 0.00 0.00 89 1012.3
20260509070828 19 87 0.0 0.0 0.00 0.00 0.00 89 1012.1
20260509070351 19 87 0.0 0.0 0.00 0.00 0.00 89 1012.2
20260509065854 19 87 0.0 1.6 0.00 0.00 0.00 89 1012.3
20260509065359 19 87 0.0 1.6 0.00 0.00 0.00 88 1012.5
20260509064830 19 92 0.0 0.0 0.00 0.00 0.00 88 1012.5
20260509064353 19 92 0.0 1.6 0.00 0.00 0.00 88 1012.7
20260509063905 19 92 0.0 1.6 0.00 0.00 0.00 88 1012.7
20260509063409 19 92 0.0 1.6 0.00 0.00 0.00 87 1013.1
20260509062912 19 92 0.0 1.6 0.00 0.00 0.00 87 1013.0
20260509062354 19 92 0.0 1.6 0.00 0.00 0.00 86 1013.4
20260509061341 19 92 0.0 3.2 0.00 0.00 0.00 86 1013.0
20260509060843 19 102 0.0 3.2 0.00 0.00 0.00 86 1012.8
20260509060356 19 102 0.0 3.2 0.00 0.00 0.00 86 1013.0
20260509055902 19 90 0.0 3.2 0.00 0.00 0.00 86 1013.4
20260509055326 19 90 0.0 3.2 0.00 0.00 0.00 85 1013.7
20260509054849 19 127 0.0 3.2 0.00 0.00 0.00 85 1013.4
20260509054322 19 192 0.0 3.2 0.00 0.00 0.00 85 1013.4
20260509053828 19 95 0.0 3.2 0.00 0.00 0.00 85 1013.1
20260509053354 19 81 0.0 3.2 0.00 0.00 0.00 85 1013.4
20260509052838 18 156 0.0 1.6 0.00 0.00 0.00 85 1013.4
20260509052334 18 156 0.0 0.0 0.00 0.00 0.00 85 1013.8
20260509051840 18 156 0.0 0.0 0.00 0.00 0.00 84 1014.0
20260509051323 18 156 0.0 1.6 0.00 0.00 0.00 84 1014.3
20260509050849 19 156 0.0 1.6 0.00 0.00 0.00 84 1014.5
20260509050327 18 156 0.0 0.0 0.00 0.00 0.00 84 1014.8
20260509045831 18 156 0.0 0.0 0.00 0.00 0.00 84 1014.8
20260509045357 18 156 0.0 0.0 0.00 0.00 0.00 84 1014.9
20260509044841 18 156 0.0 0.0 0.00 0.00 0.00 84 1014.8
20260509044342 18 156 0.0 0.0 0.00 0.00 0.00 84 1014.8
20260509043846 18 156 0.0 1.6 0.00 0.00 0.00 84 1014.8
20260509043324 18 156 0.0 1.6 0.00 0.00 0.00 84 1014.6
20260509042828 18 156 0.0 3.2 0.00 0.00 0.00 84 1014.6
20260509042332 18 156 0.0 3.2 0.00 0.00 0.00 83 1014.1
20260509041859 18 34 0.0 0.0 0.00 0.00 0.00 83 1014.4
20260509041333 18 34 0.0 0.0 0.00 0.00 0.00 83 1014.6
20260509040836 18 34 0.0 0.0 0.00 0.00 0.00 83 1015.0
20260509040343 18 34 0.0 0.0 0.00 0.00 0.00 83 1015.2
20260509035916 18 34 0.0 0.0 0.00 0.00 0.00 83 1015.3
20260509035337 18 34 0.0 0.0 0.00 0.00 0.00 82 1015.2
20260509034406 18 34 0.0 0.0 0.00 0.00 0.00 82 1015.5
20260509033827 18 34 0.0 0.0 0.00 0.00 0.00 81 1015.4
20260509033401 18 34 0.0 0.0 0.00 0.00 0.00 81 1015.5
20260509032904 18 34 0.0 0.0 0.00 0.00 0.00 81 1015.3
20260509032324 18 34 0.0 0.0 0.00 0.00 0.00 81 1015.3
20260509031856 18 34 0.0 0.0 0.00 0.00 0.00 80 1015.4
20260509031355 18 34 0.0 0.0 0.00 0.00 0.00 80 1015.4
20260509030823 18 34 0.0 0.0 0.00 0.00 0.00 80 1015.4
20260509030347 19 34 0.0 0.0 0.00 0.00 0.00 80 1015.5
20260509025918 19 34 0.0 0.0 0.00 0.00 0.00 79 1015.5
20260509025336 19 34 0.0 0.0 0.00 0.00 0.00 79 1015.7
20260509024911 19 34 0.0 0.0 0.00 0.00 0.00 79 1015.8
20260509024414 19 34 0.0 0.0 0.00 0.00 0.00 79 1015.6
20260509023834 19 34 0.0 0.0 0.00 0.00 0.00 79 1015.4
20260509023405 19 34 0.0 1.6 0.00 0.00 0.00 79 1015.2
20260509022926 19 34 0.0 1.6 0.00 0.00 0.00 79 1015.2
20260509022333 19 34 0.0 1.6 0.00 0.00 0.00 79 1015.1
20260509021942 19 34 0.0 1.6 0.00 0.00 0.00 78 1015.1
20260509021348 19 34 0.0 0.0 0.00 0.00 0.00 78 1015.1
20260509020345 19 34 0.0 0.0 0.00 0.00 0.00 77 1015.0
20260509015916 19 34 0.0 0.0 0.00 0.00 0.00 78 1015.2
20260509015438 19 34 0.0 0.0 0.00 0.00 0.00 78 1015.2
20260509014847 19 34 0.0 0.0 0.00 0.00 0.00 78 1015.3
20260509013936 19 34 0.0 1.6 0.00 0.00 0.00 77 1015.1
20260509013342 19 337 0.0 1.6 0.00 0.00 0.00 77 1015.0
20260509012914 19 337 0.0 3.2 0.00 0.00 0.00 77 1014.9
20260509012333 19 262 0.0 3.2 0.00 0.00 0.00 76 1014.9
20260509011858 19 31 0.0 4.8 0.00 0.00 0.00 76 1014.9
20260509011327 19 83 1.6 4.8 0.00 0.00 0.00 76 1015.0
20260509010847 19 120 0.0 6.4 0.00 0.00 0.00 76 1015.1
20260509010420 19 64 0.0 6.4 0.00 0.00 0.00 76 1015.0
20260509005840 19 64 0.0 3.2 0.00 0.00 0.00 76 1014.9
20260509004848 19 104 0.0 3.2 0.00 0.00 0.00 76 1014.8
20260509003854 19 241 1.6 4.8 0.00 0.00 0.00 75 1014.8
20260509003419 19 149 1.6 4.8 0.00 0.00 0.00 75 1014.8
20260509002846 19 109 1.6 6.4 0.00 0.00 0.00 75 1014.5
20260509002349 19 102 0.0 6.4 0.00 0.00 0.00 75 1014.5
20260509001921 19 103 0.0 6.4 0.00 0.00 0.00 75 1014.5
20260509001339 19 168 0.0 6.4 0.00 0.00 0.00 74 1014.4
20260509000902 19 48 1.6 6.4 0.00 0.00 0.00 75 1014.3
20260509000415 19 42 0.0 6.4 0.00 0.00 0.00 75 1014.5
20260508235832 19 101 1.6 4.8 0.00 0.00 0.00 75 1014.5
20260508235344 19 191 1.6 11.3 0.00 0.00 0.00 74 1014.4
20260508234907 19 271 3.2 11.3 0.00 0.00 0.00 73 1014.3
20260508234416 19 81 1.6 9.7 0.00 0.00 0.00 74 1014.2
20260508233835 19 114 3.2 9.7 0.00 0.00 0.00 74 1014.3
20260508232841 19 239 1.6 6.4 0.00 0.00 0.00 72 1014.2
20260508232405 19 72 1.6 9.7 0.00 0.00 0.00 71 1014.3
20260508231835 19 95 3.2 9.7 0.00 0.00 0.00 71 1014.4
20260508231357 19 174 1.6 8.0 0.00 0.00 0.00 72 1014.5
20260508230927 19 314 1.6 8.0 0.00 0.00 0.00 72 1014.5
20260508230327 19 89 1.6 8.0 0.00 0.00 0.00 73 1014.3
20260508225858 19 93 1.6 8.0 0.00 0.00 0.00 73 1014.5
20260508225419 19 114 3.2 11.3 0.00 0.00 0.00 74 1014.4
20260508224847 19 66 4.8 14.5 0.00 0.00 0.00 73 1014.2
20260508224409 20 141 3.2 14.5 0.00 0.00 0.00 73 1014.1
20260508223828 20 78 1.6 11.3 0.00 0.00 0.00 74 1014.1
20260508223400 20 152 3.2 11.3 0.00 0.00 0.00 73 1014.3
20260508222912 20 194 1.6 12.9 0.00 0.00 0.00 74 1014.2
20260508222331 20 123 4.8 12.9 0.00 0.00 0.00 74 1014.1
20260508221855 20 124 1.6 8.0 0.00 0.00 0.00 73 1014.1
20260508221405 20 245 3.2 9.7 0.00 0.00 0.00 73 1014.3
20260508220826 20 141 1.6 6.4 0.00 0.00 0.00 74 1014.4
20260508220356 20 108 1.6 6.4 0.00 0.00 0.00 74 1014.3
20260508215919 20 60 1.6 8.0 0.00 0.00 0.00 73 1014.4
20260508215346 20 114 3.2 8.0 0.00 0.00 0.00 73 1014.1
20260508214909 20 38 3.2 11.3 0.00 0.00 0.00 72 1014.2
20260508214341 20 239 1.6 8.0 0.00 0.00 0.00 72 1014.2
20260508213859 20 159 1.6 12.9 0.00 0.00 0.00 71 1014.2
20260508213434 20 85 4.8 12.9 0.00 0.00 0.00 70 1014.3
20260508212834 20 83 4.8 16.1 0.00 0.00 0.00 72 1014.4
20260508212356 20 127 3.2 12.9 0.00 0.00 0.00 72 1014.6
20260508211925 20 177 1.6 16.1 0.00 0.00 0.00 72 1014.6
20260508211423 20 141 3.2 11.3 0.00 0.00 0.00 71 1014.5
20260508210934 20 19 3.2 14.5 0.00 0.00 0.00 70 1014.5
20260508210438 20 137 3.2 14.5 0.00 0.00 0.00 71 1014.5
20260508205842 20 222 4.8 11.3 0.00 0.00 0.00 70 1014.4
20260508204853 20 76 4.8 14.5 0.00 0.00 0.00 71 1014.4
20260508204413 20 225 4.8 12.9 0.00 0.00 0.00 70 1014.3
20260508203831 20 248 4.8 12.9 0.00 0.00 0.00 69 1014.4
20260508203406 20 62 4.8 14.5 0.00 0.00 0.00 68 1014.4
20260508202927 20 49 4.8 14.5 0.00 0.00 0.00 66 1014.4
20260508202335 20 216 4.8 9.7 0.00 0.00 0.00 67 1014.3
20260508201859 21 214 3.2 19.3 0.00 0.00 0.00 66 1014.4
20260508201406 21 82 1.6 19.3 0.00 0.00 0.00 65 1014.4
20260508200907 21 114 4.8 16.1 0.00 0.00 0.00 65 1014.8
20260508200418 21 73 4.8 16.1 0.00 0.00 0.00 65 1014.8
20260508195836 21 104 3.2 14.5 0.00 0.13 0.00 64 1014.9
20260508195406 21 75 3.2 14.5 0.00 0.13 0.00 62 1014.9
20260508194828 21 237 4.8 14.5 0.00 0.13 0.00 63 1014.9
20260508194348 21 87 4.8 17.7 0.00 0.13 0.00 65 1015.1
20260508193902 21 68 4.8 17.7 0.00 0.13 0.00 64 1015.1
20260508193424 21 134 3.2 12.9 0.00 0.13 0.00 67 1015.1
20260508192855 21 111 4.8 16.1 0.00 0.13 0.00 66 1014.9
20260508192357 21 108 8.0 16.1 0.00 0.13 0.00 66 1014.9
20260508191911 21 125 3.2 14.5 0.00 0.13 0.00 65 1015.0
20260508191327 21 103 4.8 16.1 0.00 0.13 0.00 63 1015.0
20260508190851 21 285 4.8 14.5 0.00 0.13 0.00 64 1015.0
20260508190423 21 125 4.8 14.5 0.00 0.13 0.00 65 1015.1
20260508185922 21 89 3.2 17.7 0.00 0.13 0.00 64 1015.1
20260508185351 22 174 6.4 17.7 0.00 0.13 0.00 63 1015.1
20260508184915 22 106 4.8 20.9 0.00 0.13 0.00 64 1015.2
20260508184341 22 81 4.8 20.9 0.00 0.13 0.00 63 1015.2
20260508183904 21 122 8.0 20.9 0.00 0.13 0.00 63 1015.4
20260508183334 22 210 6.4 16.1 0.00 0.13 0.00 63 1015.4
20260508182854 22 208 4.8 16.1 0.00 0.13 0.00 63 1015.3
20260508182415 22 156 4.8 16.1 0.00 0.13 0.00 61 1015.2
20260508181829 22 82 4.8 16.1 0.00 0.13 0.00 60 1015.4
20260508181331 22 131 8.0 17.7 0.00 0.13 0.00 61 1015.5
20260508180850 22 23 4.8 16.1 0.00 0.13 0.00 60 1015.5
20260508180420 22 174 4.8 19.3 0.00 0.13 0.00 59 1015.5
20260508175920 22 145 6.4 19.3 0.00 0.13 0.00 59 1015.7
20260508175327 22 206 4.8 14.5 0.00 0.13 0.00 59 1015.7
20260508174855 22 134 4.8 14.5 0.00 0.13 0.00 58 1015.8
20260508174355 22 29 4.8 14.5 0.00 0.13 0.00 59 1015.7
20260508173927 23 74 4.8 14.5 0.00 0.13 0.00 55 1015.7
20260508173326 23 171 3.2 12.9 0.00 0.13 0.00 57 1015.8
20260508172856 23 193 1.6 14.5 0.00 0.13 0.00 59 1015.8
20260508172417 23 343 4.8 14.5 0.00 0.13 0.00 57 1015.9
20260508171835 23 188 4.8 17.7 0.00 0.13 0.00 54 1015.8
20260508171405 23 99 4.8 17.7 0.00 0.13 0.00 56 1015.9
20260508170828 23 93 6.4 12.9 0.00 0.13 0.00 53 1016.1
20260508170357 23 295 3.2 11.3 0.00 0.13 0.00 53 1016.2
20260508165918 23 287 1.6 12.9 0.00 0.13 0.00 54 1015.9
20260508165323 23 115 4.8 14.5 0.00 0.13 0.00 52 1015.9
20260508164856 23 189 4.8 12.9 0.00 0.13 0.00 50 1016.0
20260508164400 23 100 3.2 6.4 0.00 0.13 0.00 52 1016.1
20260508163902 23 118 1.6 8.0 0.00 0.13 0.00 50 1016.3
20260508163408 23 111 3.2 8.0 0.00 0.13 0.00 49 1016.2
20260508162834 23 245 1.6 6.4 0.00 0.13 0.00 50 1016.4
20260508162358 23 168 1.6 6.4 0.00 0.13 0.00 50 1016.4
20260508161826 23 84 1.6 9.7 0.00 0.13 0.00 50 1016.5
20260508161347 22 172 3.2 9.7 0.00 0.13 0.00 50 1016.7
20260508160852 22 228 1.6 6.4 0.00 0.13 0.00 53 1016.8
20260508160334 22 204 3.2 11.3 0.00 0.13 0.00 51 1016.8
20260508155906 22 60 3.2 11.3 0.00 0.13 0.00 51 1016.9
20260508155327 21 276 3.2 9.7 0.00 0.13 0.00 51 1017.1
20260508154900 21 112 1.6 12.9 0.00 0.13 0.00 53 1017.3
20260508154420 21 271 3.2 12.9 0.00 0.13 0.00 53 1017.2
20260508153934 22 244 3.2 11.3 0.00 0.13 0.00 53 1017.3
20260508153332 22 97 3.2 9.7 0.00 0.13 0.00 52 1017.3
20260508152854 22 268 3.2 9.7 0.00 0.13 0.00 53 1017.2
20260508151925 21 138 3.2 11.3 0.00 0.13 0.00 56 1017.2
20260508151404 21 104 4.8 11.3 0.00 0.13 0.00 55 1017.2
20260508150908 21 97 1.6 8.0 0.00 0.13 0.00 59 1017.2